METEOR 2-5 DEB, 29293

Orbit data source: Space-Track

METEOR 2-5 DEB, 29293 is space debris in LEO originally from a launch on Wed, 31 Oct 1979 UTC launched from the Plesetsk Missile And Space Complex (PKMTR). Debris objects in space refer to the collection of defunct objects orbiting the Earth. Examples of debris include non-operational satellites, rocket bodies, and fragments generated from explosions, collisions, or faulty payload assembly.

Loading next visibility...
Identifier
29293, 1979-095S
Orbit
LEO
Country
Flag of CISCIS
Related business
Manufacturer
Unknown
Mission
Spacecraft
Bus & Motor
Unknown
Mass
Unknown
Launch date (UTC)
1979-10-31 (47 years ago)
Launch vehicle
Unknown
Launch site
Plesetsk Missile And Space Complex (PKMTR)
Object type
Payload
Rocket body
Debris
Shape & HBR
Unknown shape, 0.1 m
Radar Cross Section
Small (<0.1 m²)

Expand to show TLE details & history
Last TLE update: 4 days ago

TLE from 4 days ago
0 METEOR 2-5 DEB
1 29293U 79095S   26169.19542501  .00004249  00000-0  11127-2 0  9999
2 29293  81.1935  84.8890 0005198  45.8950 314.2670 14.49193869115559
Epoch: 2026-06-18T04:41Z
TLE epoch observation values (Epoch: 2026-06-18T04:41:24.720Z)
Latitude
0.00004°
Longitude
108.09377°
Altitude
728.656 km
Speed
7.492 km/s
True Right ascension
05h 39m 33s
True Declination
0° 00' 00"
Sunlit
Object was in daylight at epoch
Visualization orbit readout
Latitude
Unknown
Longitude
Unknown
Altitude
Unknown
Speed
Unknown
Apparent Right ascension
Unknown
Apparent Declination
Unknown
Sunlit
N/A
Visualization observer readout
Local Sidereal Time
00:50:13
Azimuth
Unknown
Elevation
Unknown
Doppler factor
Unknown
Orbital elements
Apogee altitude
729.099 km
Perigee altitude
721.715 km
Semi-major axis
7,103.544 km
Eccentricity
0.00052
Inclination
81.1935°
RAAN
84.889°
Arg. of periapsis
45.895°
True anomaly
314.22433°
Mean anomaly
314.267°
Eccentric anomaly
314.24567°
Mean motion
3.62519 °/min
Orbital period
99.31 mins
BSTAR
0.0011127
Loading maneuver chart data...
Computing Atmospheric mass density...

Documentation

Showing up to 5 results
|